TimeCDT,TemperatureF,Dew PointF,Humidity,Sea Level PressureIn,VisibilityMPH,Wind Direction,Wind SpeedMPH,Gust SpeedMPH,PrecipitationIn,Events,Conditions,WindDirDegrees,DateUTC
12:52 AM,57.9,48.0,70,30.21,10.0,East,11.5,-,N/A,,Clear,90,2013-10-25 05:52:00
1:52 AM,55.9,46.9,72,30.22,10.0,East,6.9,-,N/A,,Clear,100,2013-10-25 06:52:00
2:52 AM,53.1,46.0,77,30.24,10.0,Variable,3.5,-,N/A,,Clear,0,2013-10-25 07:52:00
3:52 AM,52.0,44.1,74,30.24,10.0,East,4.6,-,N/A,,Clear,80,2013-10-25 08:52:00
4:52 AM,51.1,43.0,74,30.26,10.0,East,4.6,-,N/A,,Clear,80,2013-10-25 09:52:00
5:52 AM,50.0,43.0,77,30.28,10.0,Calm,Calm,-,N/A,,Clear,0,2013-10-25 10:52:00
6:52 AM,48.9,42.1,77,30.29,10.0,ESE,6.9,-,N/A,,Clear,120,2013-10-25 11:52:00
7:52 AM,48.0,41.0,77,30.31,10.0,Calm,Calm,-,N/A,,Clear,0,2013-10-25 12:52:00
8:52 AM,51.1,43.0,74,30.32,10.0,SE,4.6,-,N/A,,Clear,130,2013-10-25 13:52:00
9:52 AM,55.0,44.1,67,30.34,10.0,ESE,9.2,-,N/A,,Clear,120,2013-10-25 14:52:00
10:52 AM,60.1,46.0,60,30.34,10.0,Calm,Calm,-,N/A,,Clear,0,2013-10-25 15:52:00
11:52 AM,64.0,48.0,56,30.31,10.0,Variable,3.5,-,N/A,,Clear,0,2013-10-25 16:52:00
12:52 PM,68.0,51.1,55,30.28,10.0,SSE,6.9,-,N/A,,Clear,150,2013-10-25 17:52:00
1:52 PM,72.0,51.1,48,30.25,10.0,SSE,11.5,-,N/A,,Clear,150,2013-10-25 18:52:00
2:52 PM,72.0,48.9,44,30.22,10.0,South,9.2,-,N/A,,Clear,170,2013-10-25 19:52:00
3:52 PM,73.9,46.9,38,30.20,10.0,SSE,9.2,-,N/A,,Clear,150,2013-10-25 20:52:00
4:52 PM,72.0,48.9,44,30.19,10.0,SE,10.4,-,N/A,,Mostly Cloudy,140,2013-10-25 21:52:00
5:52 PM,72.0,48.0,43,30.18,10.0,SSE,9.2,-,N/A,,Partly Cloudy,160,2013-10-25 22:52:00
6:52 PM,68.0,48.9,50,30.17,10.0,SE,9.2,-,N/A,,Clear,140,2013-10-25 23:52:00
7:52 PM,64.0,50.0,60,30.18,10.0,ESE,9.2,-,N/A,,Clear,120,2013-10-26 00:52:00
8:52 PM,64.0,51.1,63,30.17,10.0,SE,11.5,-,N/A,,Clear,130,2013-10-26 01:52:00
9:52 PM,64.0,53.1,67,30.19,10.0,SSE,6.9,-,N/A,,Clear,160,2013-10-26 02:52:00
10:52 PM,61.0,53.1,75,30.20,10.0,SE,6.9,-,N/A,,Clear,130,2013-10-26 03:52:00
11:52 PM,59.0,53.1,81,30.18,10.0,SE,9.2,-,N/A,,Clear,130,2013-10-26 04:52:00